Location: Madingley
(52.2167°N, 0.0500°E)
Time: 15:53:43
(UTC+00:00)

Cosmos 1937 Rocket - Pass Details

Date: 15 May 2026
Orbit: 743 x 774 km, 74.0° (Epoch: 10 June)

Event Time Altitude Azimuth Distance (km) Brightness Sun altitude
Rises 22:19:35 0° 336° (NNW) 3,209 8.6 -15.7°
Reaches altitude 10° 22:22:02 10° 342° (NNW) 2,277 7.3 -15.8°
Maximum altitude 22:27:02 50° 58° (ENE) 953 4.0 -16.1°
Enters shadow 22:30:10 22° 125° (SE) 1,605 4.7 -16.3°
